User: anonymous   Login
Location: Hartman Creek State Park
(44.3257°N, 89.2134°W)
Time: 12:07:06
(UTC-05:00)
Language:

Terra - Orbit

View from above orbital plane
View from above orbital plane
View from above satellite
View from above satellite

Ground track
Ground track

The orbit data is extracted from the following two-line orbital elements,

1 25994U 99068A   15144.18385721  .00000336  00000-0  84694-4 0  9998
2 25994 098.2116 219.0763 0001218 107.7229 252.4121 14.57108947820728
Epoch (UTC): 24 May 2015 04:24:45
Eccentricity: 0.0001218
inclination: 98.2116°
perigee height: 701 km
apogee height: 703 km
right ascension of ascending node: 219.0763°
argument of perigee: 107.7229°
revolutions per day: 14.57108947
mean anomaly at epoch: 252.4121°
orbit number at epoch: 82072

The dashed part of the orbit path shows where the satellite is in the earth's shadow,  

DLR